When you browse on this site, cookies collect data to enhance your experience and personalize the content and advertising you see.
Visit our Privacy Policy to learn more. By continuing to use the site, you agree to this use of cookies and data.
  • In Österreich
  • Länderverzeichnis
  • Für 7 Tage
  • Wassertemperatur
  • Satellitenkarten
  • Wetterkarte
  • News
  • Widgets
  • user-avatar
    Anmelden

    Stündliche Wetter Goscino

    Heute, 18 Januar, Freitag

    Zeit Temperatur Niederschläge Wind Luftdruck Luftfeuchtigkeit
    00:00 -1°C° 0.2 mm 6 m/S 745 mmHg 84%
    01:00 -1°C° 0 mm 7 m/S 746 mmHg 84%
    02:00 -1°C° 0.3 mm 7 m/S 747 mmHg 83%
    03:00 -2°C° 0.3 mm 7 m/S 748 mmHg 83%
    04:00 -2°C° 0.3 mm 7 m/S 749 mmHg 82%
    05:00 -3°C° 0 mm 7 m/S 750 mmHg 80%
    06:00 -3°C° 0 mm 6 m/S 751 mmHg 78%
    07:00 -4°C° 0 mm 6 m/S 752 mmHg 75%
    08:00 -3°C° 0 mm 6 m/S 753 mmHg 73%
    09:00 -3°C° 0 mm 6 m/S 754 mmHg 71%
    10:00 -2°C° 0 mm 5 m/S 755 mmHg 69%
    11:00 -2°C° 0.1 mm 6 m/S 755 mmHg 68%
    12:00 -2°C° 0.1 mm 6 m/S 755 mmHg 68%
    13:00 -1°C° 0.1 mm 7 m/S 756 mmHg 68%
    14:00 -2°C° 0.1 mm 6 m/S 756 mmHg 71%
    15:00 -2°C° 0.1 mm 6 m/S 757 mmHg 74%
    16:00 -2°C° 0.1 mm 5 m/S 757 mmHg 77%
    17:00 -2°C° 0 mm 5 m/S 757 mmHg 79%
    18:00 -2°C° 0 mm 5 m/S 757 mmHg 80%
    19:00 -4°C° 0 mm 5 m/S 757 mmHg 82%
    20:00 -3°C° 0 mm 4 m/S 758 mmHg 83%
    21:00 -3°C° 0 mm 4 m/S 758 mmHg 84%
    22:00 -3°C° 0 mm 4 m/S 758 mmHg 85%
    23:00 -3°C° 0 mm 4 m/S 759 mmHg 84%

    Morgen, 19 Januar, Samstag

    Zeit Temperatur Niederschläge Wind Luftdruck Luftfeuchtigkeit
    00:00 -3°C° 0 mm 4 m/S 759 mmHg 82%
    01:00 -3°C° 0 mm 4 m/S 759 mmHg 81%
    02:00 -3°C° 0 mm 4 m/S 759 mmHg 81%
    03:00 -3°C° 0 mm 4 m/S 759 mmHg 81%
    04:00 -3°C° 0 mm 4 m/S 759 mmHg 82%
    05:00 -3°C° 0 mm 4 m/S 760 mmHg 84%
    06:00 -3°C° 0 mm 4 m/S 760 mmHg 86%
    07:00 -3°C° 0 mm 4 m/S 760 mmHg 89%
    08:00 -2°C° 0 mm 4 m/S 760 mmHg 87%
    09:00 -2°C° 0 mm 4 m/S 760 mmHg 86%
    10:00 -2°C° 0 mm 4 m/S 761 mmHg 85%
    11:00 -1°C° 0 mm 4 m/S 760 mmHg 82%
    12:00 -1°C° 0 mm 4 m/S 760 mmHg 80%
    13:00 0°C° 0 mm 4 m/S 760 mmHg 77%
    14:00 -1°C° 0 mm 4 m/S 760 mmHg 80%
    15:00 -1°C° 0 mm 3 m/S 760 mmHg 82%
    16:00 -1°C° 0 mm 3 m/S 760 mmHg 85%
    17:00 -1°C° 0 mm 3 m/S 760 mmHg 86%
    18:00 -2°C° 0 mm 3 m/S 760 mmHg 88%
    19:00 -2°C° 0 mm 3 m/S 760 mmHg 89%
    20:00 -2°C° 0 mm 3 m/S 760 mmHg 89%
    21:00 -2°C° 0 mm 3 m/S 760 mmHg 89%
    22:00 -2°C° 0 mm 3 m/S 760 mmHg 89%
    23:00 -2°C° 0 mm 3 m/S 760 mmHg 89%

    übermorgen, 20 Januar, Sonntag

    Zeit Temperatur Niederschläge Wind Luftdruck Luftfeuchtigkeit
    00:00 -4°C° 0 mm 3 m/S 760 mmHg 88%
    01:00 -4°C° 0 mm 3 m/S 760 mmHg 88%
    02:00 -4°C° 0 mm 3 m/S 759 mmHg 88%
    03:00 -4°C° 0 mm 3 m/S 759 mmHg 89%
    04:00 -4°C° 0 mm 3 m/S 759 mmHg 89%
    05:00 -4°C° 0 mm 3 m/S 759 mmHg 89%
    06:00 -4°C° 0 mm 3 m/S 759 mmHg 90%
    07:00 -3°C° 0 mm 2 m/S 759 mmHg 90%
    08:00 -4°C° 0 mm 3 m/S 759 mmHg 88%
    09:00 -2°C° 0 mm 3 m/S 759 mmHg 87%
    10:00 -2°C° 0 mm 3 m/S 760 mmHg 85%
    11:00 -1°C° 0 mm 3 m/S 759 mmHg 84%
    12:00 0°C° 0 mm 3 m/S 759 mmHg 82%
    13:00 0°C° 0 mm 3 m/S 759 mmHg 81%
    14:00 0°C° 0 mm 3 m/S 760 mmHg 84%
    15:00 0°C° 0 mm 3 m/S 760 mmHg 87%
    16:00 -1°C° 0 mm 3 m/S 760 mmHg 90%
    17:00 -1°C° 0 mm 3 m/S 760 mmHg 90%
    18:00 -1°C° 0 mm 3 m/S 760 mmHg 90%
    19:00 -2°C° 0 mm 3 m/S 761 mmHg 89%
    20:00 -2°C° 0 mm 3 m/S 761 mmHg 89%
    21:00 -2°C° 0 mm 3 m/S 761 mmHg 88%
    22:00 -2°C° 0 mm 3 m/S 762 mmHg 88%
    23:00 -2°C° 0 mm 3 m/S 762 mmHg 89%

    21 Januar, Montag

    Zeit Temperatur Niederschläge Wind Luftdruck Luftfeuchtigkeit
    00:00 -1°C° 0 mm 3 m/S 762 mmHg 89%
    01:00 -1°C° 0 mm 2 m/S 762 mmHg 90%
    02:00 -1°C° 0 mm 3 m/S 762 mmHg 90%
    03:00 -1°C° 0 mm 3 m/S 762 mmHg 90%
    04:00 -1°C° 0 mm 3 m/S 762 mmHg 90%
    05:00 -1°C° 0 mm 3 m/S 762 mmHg 89%
    06:00 -3°C° 0 mm 4 m/S 762 mmHg 89%
    07:00 -3°C° 0 mm 4 m/S 763 mmHg 89%
    08:00 -3°C° 0 mm 4 m/S 763 mmHg 87%
    09:00 -4°C° 0 mm 5 m/S 763 mmHg 85%
    10:00 -4°C° 0 mm 5 m/S 763 mmHg 84%
    11:00 -2°C° 0 mm 5 m/S 762 mmHg 79%
    12:00 -2°C° 0 mm 5 m/S 762 mmHg 74%
    13:00 -1°C° 0 mm 5 m/S 762 mmHg 69%
    14:00 -3°C° 0 mm 6 m/S 761 mmHg 69%
    15:00 -3°C° 0 mm 6 m/S 761 mmHg 69%
    16:00 -3°C° 0 mm 6 m/S 760 mmHg 69%
    17:00 -3°C° 0 mm 6 m/S 760 mmHg 68%
    18:00 -3°C° 0 mm 6 m/S 760 mmHg 68%
    19:00 -3°C° 0 mm 7 m/S 760 mmHg 67%
    20:00 -4°C° 0 mm 6 m/S 759 mmHg 69%
    21:00 -4°C° 0 mm 6 m/S 759 mmHg 71%
    22:00 -4°C° 0 mm 6 m/S 759 mmHg 73%
    23:00 -4°C° 0 mm 6 m/S 758 mmHg 74%

    22 Januar, Dienstag

    Zeit Temperatur Niederschläge Wind Luftdruck Luftfeuchtigkeit
    00:00 -4°C° 0 mm 5 m/S 758 mmHg 75%
    01:00 -5°C° 0 mm 5 m/S 758 mmHg 76%
    02:00 -5°C° 0 mm 5 m/S 757 mmHg 77%
    03:00 -5°C° 0 mm 5 m/S 756 mmHg 78%
    04:00 -5°C° 0 mm 5 m/S 756 mmHg 79%
    05:00 -5°C° 0 mm 5 m/S 755 mmHg 74%
    06:00 -5°C° 0 mm 5 m/S 755 mmHg 69%
    07:00 -5°C° 0 mm 6 m/S 754 mmHg 64%
    08:00 -5°C° 0 mm 6 m/S 753 mmHg 64%
    09:00 -4°C° 0 mm 6 m/S 753 mmHg 63%
    10:00 -4°C° 0 mm 7 m/S 752 mmHg 62%
    11:00 -4°C° 0 mm 7 m/S 751 mmHg 61%
    12:00 -3°C° 0 mm 7 m/S 750 mmHg 59%
    13:00 -4°C° 0 mm 8 m/S 750 mmHg 57%
    14:00 -4°C° 0 mm 8 m/S 749 mmHg 58%
    15:00 -4°C° 0 mm 8 m/S 748 mmHg 59%
    16:00 -4°C° 0 mm 8 m/S 747 mmHg 60%
    17:00 -4°C° 0 mm 8 m/S 746 mmHg 59%
    18:00 -4°C° 0 mm 8 m/S 746 mmHg 59%
    19:00 -4°C° 0 mm 8 m/S 745 mmHg 58%
    20:00 -4°C° 0 mm 8 m/S 745 mmHg 59%
    21:00 -4°C° 0 mm 7 m/S 745 mmHg 61%
    22:00 -4°C° 0 mm 7 m/S 744 mmHg 62%
    23:00 -4°C° 0.1 mm 7 m/S 744 mmHg 66%

    23 Januar, Mittwoch

    Zeit Temperatur Niederschläge Wind Luftdruck Luftfeuchtigkeit
    00:00 -4°C° 0.1 mm 7 m/S 744 mmHg 70%
    01:00 -4°C° 0.1 mm 6 m/S 743 mmHg 73%
    02:00 -4°C° 0.1 mm 6 m/S 743 mmHg 76%
    03:00 -4°C° 0.1 mm 6 m/S 743 mmHg 78%
    04:00 -4°C° 0.1 mm 6 m/S 742 mmHg 80%
    05:00 -4°C° 0 mm 6 m/S 742 mmHg 81%
    06:00 -4°C° 0 mm 5 m/S 742 mmHg 82%
    07:00 -5°C° 0 mm 5 m/S 742 mmHg 83%
    08:00 -4°C° 0 mm 5 m/S 742 mmHg 81%
    09:00 -4°C° 0 mm 5 m/S 742 mmHg 80%
    10:00 -3°C° 0 mm 4 m/S 742 mmHg 78%
    11:00 -3°C° 0 mm 4 m/S 742 mmHg 75%
    12:00 -2°C° 0 mm 4 m/S 742 mmHg 73%
    13:00 -1°C° 0 mm 3 m/S 741 mmHg 70%
    14:00 -1°C° 0 mm 3 m/S 741 mmHg 72%
    15:00 -2°C° 0 mm 3 m/S 741 mmHg 74%
    16:00 -2°C° 0 mm 3 m/S 741 mmHg 76%
    17:00 -2°C° 0.1 mm 3 m/S 742 mmHg 77%
    18:00 -2°C° 0.1 mm 3 m/S 742 mmHg 79%
    19:00 -2°C° 0.1 mm 3 m/S 742 mmHg 81%
    20:00 -4°C° 0 mm 3 m/S 742 mmHg 81%
    21:00 -4°C° 0 mm 3 m/S 742 mmHg 80%
    22:00 -4°C° 0 mm 3 m/S 742 mmHg 80%
    23:00 -4°C° 0 mm 3 m/S 742 mmHg 81%
    Mehr zeigen